Flag for France Weather past 2 weeks in Paris, France

Now
48 °F

Clear.


Feels Like: 48 °F
Forecast: 48 / 62 °F
Wind: 1 mph from North

Location: Villacoublay


UV Index: 0 (Low)

Visibility: N/A


Pressure: 29.68 "Hg

Humidity: 76%

Dew point: 41 °F

Location of ParisLocation

Historic Weather in Paris

°F

Paris temperature yesterday

Maximum temperature yesterday: 57 °F (at 3:30 PM)
Minimum temperature yesterday: 41 °F (at 5:00 AM)
Average temperature yesterday: 48 °F

Past Weeks' High & Low Weather Summary

 TemperatureHumidityPressure
High72 °F (Apr 7, 4:30 PM)100% (Apr 7, 3:30 AM)30.36 "Hg (Apr 7, 3:30 AM)
Low39 °F (Apr 9, 6:30 AM)23% (Apr 17, 6:00 PM)29.68 "Hg (Apr 20, 4:00 AM)
Average53 °F63%30.12 "Hg
* Reported Apr 5 4:00 AM — Apr 20 4:30 AM, Paris, Weather by CustomWeather, © 2014

Note: Actual official high and low records may vary slightly from our data, if they occured in-between our weather recording intervals... More about our weather records

Advertising

Historic Weather Conditions — Data for Previous 24 hours

 ConditionsComfort  
Time TempWeatherWind HumidityBarometerVisibility
4:30 AM
Apr 20
48 °FClear.1 mph76%29.68 "HgN/A
4:00 AM48 °FOvercast.3 mph82%29.68 "HgN/A
3:30 AM48 °FOvercast.2 mph82%29.71 "HgN/A
3:00 AM48 °FMostly cloudy.2 mph76%29.71 "HgN/A
2:30 AM48 °FClear.5 mph76%29.71 "HgN/A
2:00 AM48 °FLight rain. Mostly cloudy.7 mph82%29.71 "HgN/A
1:30 AM46 °FLight rain. Overcast.6 mph87%29.74 "HgN/A
1:00 AM48 °FLight rain. Overcast.5 mph76%29.74 "HgN/A
12:30 AM50 °FLight rain. Mostly cloudy.6 mph67%29.77 "HgN/A
12:00 AM50 °FClear.7 mph67%29.77 "HgN/A
11:30 PM
Apr 19
52 °FLight rain. Clear.9 mph58%29.77 "HgN/A
11:00 PM52 °FClear.8 mph54%29.80 "HgN/A
10:30 PM52 °FClear.8 mph54%29.80 "HgN/A
10:00 PM52 °FLight rain. Clear.7 mph58%29.83 "HgN/A
9:30 PM52 °FClear.10 mph54%29.83 "HgN/A
9:00 PM52 °FClear.9 mph50%29.83 "HgN/A
8:30 PM52 °FClear.10 mph47%29.83 "HgN/A
8:00 PM52 °FCloudy.6 mph50%29.86 "HgN/A
7:30 PM52 °FMostly cloudy.8 mph50%29.86 "HgN/A
7:00 PM52 °FBroken clouds.10 mph50%29.86 "HgN/A
6:30 PM52 °FBroken clouds.7 mph54%29.86 "HgN/A
6:00 PM52 °FLight rain. Cloudy.9 mph54%29.89 "HgN/A
5:30 PM54 °FClear.10 mph47%29.86 "HgN/A
5:00 PM54 °FMostly cloudy.16 mph47%29.89 "HgN/A
4:30 PM54 °FMostly cloudy.15 mph44%29.89 "HgN/A
4:00 PM54 °FClear.12 mph47%29.89 "HgN/A
3:30 PM57 °FClear.9 mph39%29.89 "HgN/A
3:00 PM54 °FBroken clouds.12 mph44%29.89 "HgN/A
2:30 PM54 °FPartly sunny.13 mph47%29.92 "HgN/A
2:00 PM54 °FBroken clouds.14 mph47%29.92 "HgN/A
1:30 PM54 °FPartly sunny.9 mph47%29.92 "HgN/A
1:00 PM52 °FPartly sunny.9 mph54%29.92 "HgN/A
12:30 PM52 °FBroken clouds.10 mph54%29.95 "HgN/A
12:00 PM50 °FPassing clouds.10 mph58%29.95 "HgN/A
11:30 AM48 °FPassing clouds.10 mph62%29.95 "HgN/A
11:00 AM48 °FClear.10 mph62%29.95 "HgN/A
10:30 AM46 °FClear.10 mph66%29.95 "HgN/A
10:00 AM45 °FPartly sunny.10 mph71%29.95 "HgN/A
9:30 AM43 °FMostly cloudy.12 mph76%29.95 "HgN/A
9:00 AM43 °FClear.10 mph76%29.98 "HgN/A
8:30 AM43 °FClear.9 mph71%29.95 "HgN/A
8:00 AM41 °FPassing clouds.10 mph81%29.98 "HgN/A
7:30 AM41 °FClear.13 mph81%29.95 "HgN/A
7:00 AM41 °FClear.13 mph81%29.95 "HgN/A
6:30 AM41 °FClear.10 mph81%29.95 "HgN/A
6:00 AM41 °FClear.9 mph81%29.95 "HgN/A
5:30 AM41 °FClear.10 mph81%29.95 "HgN/A
5:00 AM41 °FClear.10 mph81%29.95 "HgN/A
Weather by CustomWeather, © 2014

See weather overview